OPS 4682 DEB, 18271

Orbit data source: Space-Track

OPS 4682 DEB, 18271 is space debris in LEO originally from a launch on Sat, 03 Apr 1965 UTC launched from the Air Force Western Test Range (AFWTR). Debris objects in space refer to the collection of defunct objects orbiting the Earth. Examples of debris include non-operational satellites, rocket bodies, and fragments generated from explosions, collisions, or faulty payload assembly.

Loading next visibility...
Identifier
18271, 1965-027AA
Orbit
LEO
Country
Flag of USUS
Related business
Manufacturer
Unknown
Mission
Spacecraft
Bus & Motor
Unknown
Mass
Unknown
Launch date (UTC)
1965-04-03 (61 years ago)
Launch vehicle
Unknown
Launch site
Air Force Western Test Range (AFWTR)
Object type
Payload
Rocket body
Debris
Shape & HBR
Unknown shape, 0.1 m
Radar Cross Section
Medium (>0.1 m² and <1 m²)

Expand to show TLE details & history
Last TLE update: 22 hours ago

TLE from 22 hours ago
0 OPS 4682 DEB
1 18271U 65027AA  26149.61158137  .00000747  00000-0  25344-2 0  9991
2 18271  90.2438   7.1001 0032104 163.1011 254.9813 12.97660296886988
Epoch: 2026-05-29T14:40Z
TLE epoch observation values (Epoch: 2026-05-29T14:40:40.630Z)
Latitude
57.81611°
Longitude
-100.59412°
Altitude
1,287.499 km
Speed
7.215 km/s
True Right ascension
00h 26m 51s
True Declination
57° 40' 18"
Sunlit
Object was in daylight at epoch
Visualization orbit readout
Latitude
Unknown
Longitude
Unknown
Altitude
Unknown
Speed
Unknown
Apparent Right ascension
Unknown
Apparent Declination
Unknown
Sunlit
N/A
Visualization observer readout
Local Sidereal Time
22:04:24
Azimuth
Unknown
Elevation
Unknown
Doppler factor
Unknown
Orbital elements
Apogee altitude
1,292.946 km
Perigee altitude
1,243.85 km
Semi-major axis
7,646.535 km
Eccentricity
0.00321
Inclination
90.2438°
RAAN
7.1001°
Arg. of periapsis
163.1011°
True anomaly
254.62635°
Mean anomaly
254.9813°
Eccentric anomaly
254.80379°
Mean motion
3.24598 °/min
Orbital period
110.91 mins
BSTAR
0.0025344
Loading maneuver chart data...
Computing Atmospheric mass density...
Loading historical data...
Loading historical data...
Loading historical data...
Loading historical data...
Loading historical data...
Loading historical data...
Loading historical data...

Documentation

Showing up to 5 results
|